Погода в Новом Курлаке

Россия / Воронежская область     51°25′54″N   40°33′19″E
темп.,
°C
ветер,
м/с
пор.,
м/с
влажн.,
%
обл.,
%
осадки,
мм/ч
давл.,
гПа
погр.,
м
27 ноября, сб
сб2700:00−2ю410865 0.0 1019249
03:00−3ююв49925 0.0 1019194
06:00−3ююв4129592 0.0 1018268
09:000ююв61490100 0.0 1017360
12:00+3ююв71679100 0.0 1015596
15:00+3ююв81776100 0.0 1012637
18:00+2ююв91986100 1.6 1010681
21:00+3ю71688100 2.8 1009613
28 ноября, вс
вс2800:00+4ю61493100 0.3 1009428
03:00+4ю51194100 0.3 1008313
06:00+4ю51196100 0.1 1008324
09:00+5ю4998100 0.1 1009252
12:00+6ю3797100 0.1 1009235
15:00+6ююз2598100 0.2 1010126
18:00+6ююз239786 0.0 101249
21:00+5ю349682 0.0 101251
29 ноября, пн
пн2900:00+4ююв3693100 0.0 101291
03:00+4юв4996100 0.0 1011171
06:00+7юв61596100 0.1 1008446
09:00+8ююв91791100 6.2 1006706
12:00+8ююв91788100 1.1 1004794
15:00+10ю81692100 1.2 1002732
18:00+10ююв81696100 3.3 999682
21:00+10ю102086100 6.3 9951046
30 ноября, вт
вт3000:00+11ю112188100 0.8 9911218
03:00+12ю121983100 1.2 9881216
06:00+10юз101678100 0.3 989962
09:00+7зюз101576100 0.4 9931153
12:00+5зюз9166467 0.0 9961191
15:00+4юз814645 0.0 997999
18:00+3юз81466100 0.0 997801
21:00+2юз61371100 0.0 997670
1 декабря, ср
ср100:00+1ююз5978100 0.0 997409
03:000юз4878100 0.0 996431
06:000зюз5978100 0.0 996628
09:00−1з6107592 0.0 998857
12:00+1з71167100 0.0 9981315
15:00+1з7116599 0.1 10001490
18:00−1з71165100 0.0 10021105
21:00−2з6106812 0.0 1004809